Location: Bellflower
(33.8817°N, 118.1170°W)
Time: 14:03:40
(UTC+00:00)

SWAS - Pass Details

Date: 23 November 2020
Orbit: 580 x 591 km, 69.9° (Epoch: 21 January)

Event Time Altitude Azimuth Distance (km) Brightness Sun altitude
Exits shadow 13:40:24 - 334° (NNW) 2,272 7.1 -11.0°
Reaches altitude 10° 13:41:20 10° 333° (NNW) 1,902 6.7 -10.8°
Maximum altitude 13:45:34 71° 250° (WSW) 619 4.4 -10.0°
Drops below altitude 10° 13:49:47 10° 166° (SSE) 1,896 7.5 -9.1°
Sets 13:52:01 0° 164° (SSE) 2,794 8.4 -8.7°
